Richmond, VA

2:05 PM EST on March 01, 2017 (GMT -0500)
Richmond International

Weather History for KRIC - January, 2012

Change the Weather History Date:

Saturday, January 28, 2012

  Actual Average Record
Temperature  
Mean Temperature 46 °F 38 °F  
Max Temperature 60 °F 48 °F 77 °F (1944)
Min Temperature 32 °F 29 °F -7 °F (1940)
Degree Days  
Heating Degree Days 19 27  
Month to date heating degree days 625 756  
Since 1 July heating degree days 1752 2175  
Cooling Degree Days 0 0  
Month to date cooling degree days 0 0  
Year to date cooling degree days 0 0  
Moisture  
Dew Point 30 °F    
Average Humidity 58    
Maximum Humidity 85    
Minimum Humidity 31    
Precipitation  
Precipitation 0.00 in 0.10 in 2.07 in (1952)
Month to date precipitation 1.73 2.74  
Year to date precipitation 1.73 2.74  
Snow  
Snow 0.00 in 0.10 in 10.30 in (1922)
Month to date snowfall T 3.4  
Since 1 July snowfall T 5.7  
Snow Depth 0.00 in    
Sea Level Pressure  
Sea Level Pressure 30.08 in    
Wind  
Wind Speed 8 mph (SW)    
Max Wind Speed 24 mph    
Max Gust Speed 31 mph    
Visibility 10 miles    
Events      
T = Trace of Precipitation, MM = Missing Value Source: NWS Daily Summary

Daily Weather History Graph

Daily Weather History Graph

Search for Another Location

Airport or City:

Trip Planner

Search our weather history database for the weather conditions in past years. The results will help you decide how hot, cold, wet, or windy it might be!

Date:

Astronomy

Jan. 28, 2012 Rise Set
Actual Time 7:16 AM EST 5:28 PM EST
Civil Twilight 6:48 AM EST 5:56 PM EST
Nautical Twilight 6:16 AM EST 6:27 PM EST
Astronomical Twilight 5:46 AM EST 6:58 PM EST
Moon 9:45 AM EST (1/28) 11:06 PM EST (1/28)
Length of Visible Light 11h 07m
Length of Day
10h 12m
Waxing Crescent, 27% of the Moon is Illuminated
Jan 28
Waxing Crescent
Jan 30
First Quarter
Feb 7
Full
Feb 14
Last Quarter
Feb 21
New

Hourly Weather History & Observations

Time (EST) Temp. Windchill Dew Point Humidity Pressure Visibility Wind Dir Wind Speed Gust Speed Precip Events Conditions
12:54 AM 44.1 °F 40.8 °F 30.9 °F 60% 30.03 in 10.0 mi WNW 5.8 mph - N/A   Clear
1:54 AM 42.1 °F 40.2 °F 30.0 °F 62% 30.04 in 10.0 mi NE 3.5 mph - N/A   Clear
2:54 AM 37.0 °F - 30.9 °F 79% 30.05 in 10.0 mi Calm Calm - N/A   Clear
3:54 AM 36.0 °F - 30.9 °F 82% 30.06 in 10.0 mi Calm Calm - N/A   Clear
4:54 AM 35.1 °F - 30.0 °F 82% 30.08 in 10.0 mi Calm Calm - N/A   Clear
5:54 AM 32.0 °F 27.5 °F 28.9 °F 88% 30.08 in 10.0 mi SE 4.6 mph - N/A   Clear
6:54 AM 34.0 °F - 28.0 °F 79% 30.10 in 10.0 mi Calm Calm - N/A   Partly Cloudy
7:54 AM 33.1 °F 28.7 °F 28.9 °F 85% 30.10 in 10.0 mi SE 4.6 mph - N/A   Partly Cloudy
8:54 AM 42.1 °F 38.4 °F 32.0 °F 67% 30.11 in 10.0 mi SSE 5.8 mph - N/A   Partly Cloudy
9:54 AM 45.0 °F 39.7 °F 30.9 °F 58% 30.12 in 10.0 mi SSE 10.4 mph - N/A   Partly Cloudy
10:54 AM 48.9 °F - 32.0 °F 52% 30.12 in 10.0 mi South 9.2 mph - N/A   Clear
11:54 AM 52.0 °F - 34.0 °F 50% 30.09 in 10.0 mi SSW 13.8 mph 20.7 mph N/A   Clear
12:54 PM 54.0 °F - 34.0 °F 47% 30.03 in 10.0 mi SSW 11.5 mph - N/A   Clear
1:54 PM 57.9 °F - 34.0 °F 41% 29.99 in 10.0 mi SSW 16.1 mph - N/A   Clear
2:54 PM 59.0 °F - 30.9 °F 35% 30.00 in 10.0 mi SW 13.8 mph - N/A   Clear
3:54 PM 59.0 °F - 28.9 °F 32% 30.00 in 10.0 mi WSW 13.8 mph - N/A   Clear
4:54 PM 57.9 °F - 30.0 °F 35% 30.01 in 10.0 mi SW 12.7 mph - N/A   Partly Cloudy
5:54 PM 52.0 °F - 32.0 °F 47% 30.03 in 10.0 mi SSW 8.1 mph - N/A   Partly Cloudy
6:54 PM 53.1 °F - 33.1 °F 47% 30.06 in 10.0 mi WSW 9.2 mph - N/A   Mostly Cloudy
7:54 PM 54.0 °F - 32.0 °F 43% 30.10 in 10.0 mi West 8.1 mph - N/A   Partly Cloudy
8:54 PM 51.1 °F - 26.1 °F 38% 30.14 in 10.0 mi WNW 15.0 mph - N/A   Partly Cloudy
9:54 PM 48.0 °F - 23.0 °F 37% 30.17 in 10.0 mi WNW 12.7 mph - N/A   Clear
10:54 PM 46.9 °F - 19.9 °F 34% 30.19 in 10.0 mi WNW 10.4 mph - N/A   Clear
11:54 PM 43.0 °F 37.2 °F 17.1 °F 35% 30.22 in 10.0 mi WNW 10.4 mph - N/A   Clear